| time (UTC) | temp F | wind direction | speed knots | gust knots | rain 1hr in | rain 24hr in | rain mn in | humidity % | barometer mb |
| 20260508060032 | 30 | 172 | 0.0 | 0.9 | 0.00 | 0.02 | 0.02 | 74 | 1018.0 |
| 20260508054631 | 30 | 172 | 0.0 | 0.9 | 0.00 | 0.02 | 0.02 | 76 | 1018.0 |
| 20260508053031 | 30 | 172 | 0.0 | 1.7 | 0.00 | 0.02 | 0.02 | 75 | 1018.0 |
| 20260508051530 | 31 | 172 | 0.0 | 0.9 | 0.00 | 0.02 | 0.02 | 76 | 1018.0 |
| 20260508050031 | 32 | 142 | 0.0 | 0.0 | 0.00 | 0.02 | 0.02 | 73 | 1018.1 |
| 20260508044529 | 33 | 142 | 0.0 | 0.0 | 0.00 | 0.02 | 0.02 | 70 | 1018.0 |
| 20260508043029 | 35 | 142 | 0.0 | 0.9 | 0.00 | 0.02 | 0.02 | 64 | 1018.2 |
| 20260508041528 | 36 | 155 | 0.0 | 0.9 | 0.00 | 0.02 | 0.02 | 60 | 1018.3 |
| 20260508040028 | 38 | 256 | 0.0 | 2.6 | 0.00 | 0.02 | 0.02 | 57 | 1018.4 |
| 20260508034528 | 38 | 150 | 0.0 | 3.5 | 0.00 | 0.02 | 0.02 | 55 | 1018.5 |
| 20260508033027 | 39 | 143 | 0.0 | 2.6 | 0.00 | 0.02 | 0.02 | 52 | 1018.4 |
| 20260508031526 | 40 | 200 | 0.9 | 2.6 | 0.00 | 0.02 | 0.02 | 50 | 1018.2 |
| 20260508030026 | 40 | 165 | 0.9 | 3.5 | 0.00 | 0.02 | 0.02 | 49 | 1018.0 |
| 20260508024525 | 41 | 198 | 0.9 | 2.6 | 0.00 | 0.02 | 0.02 | 48 | 1017.8 |
| 20260508023027 | 41 | 198 | 0.9 | 3.5 | 0.00 | 0.02 | 0.02 | 48 | 1017.6 |
| 20260508021529 | 42 | 144 | 0.9 | 2.6 | 0.00 | 0.02 | 0.02 | 48 | 1017.3 |
| 20260508020023 | 43 | 224 | 0.0 | 2.6 | 0.00 | 0.02 | 0.02 | 49 | 1017.1 |
| 20260508014523 | 43 | 224 | 0.0 | 1.7 | 0.00 | 0.02 | 0.02 | 53 | 1017.0 |
| 20260508013034 | 44 | 224 | 0.9 | 3.5 | 0.00 | 0.02 | 0.02 | 53 | 1016.9 |
| 20260508011522 | 46 | 224 | 0.9 | 2.6 | 0.00 | 0.02 | 0.02 | 48 | 1016.9 |
| 20260508010120 | 48 | 224 | 0.9 | 3.5 | 0.00 | 0.02 | 0.02 | 42 | 1017.1 |
| 20260508004533 | 53 | 222 | 0.9 | 3.5 | 0.00 | 0.03 | 0.02 | 35 | 1017.2 |
| 20260508003021 | 56 | 217 | 0.0 | 5.2 | 0.00 | 0.03 | 0.02 | 27 | 1017.3 |
| 20260508001518 | 58 | 198 | 1.7 | 5.2 | 0.00 | 0.03 | 0.02 | 24 | 1017.6 |
| 20260508000012 | 58 | 8 | 0.0 | 8.7 | 0.00 | 0.04 | 0.02 | 25 | 1017.7 |
| 20260507234510 | 59 | 218 | 0.9 | 7.8 | 0.00 | 0.04 | 0.02 | 22 | 1017.9 |
| 20260507233008 | 58 | 211 | 3.5 | 6.1 | 0.00 | 0.04 | 0.02 | 23 | 1018.1 |
| 20260507231508 | 57 | 234 | 3.5 | 9.6 | 0.00 | 0.04 | 0.02 | 24 | 1018.4 |
| 20260507230005 | 58 | 64 | 4.3 | 11.3 | 0.00 | 0.04 | 0.02 | 23 | 1018.7 |
| 20260507224502 | 58 | 309 | 2.6 | 11.3 | 0.00 | 0.04 | 0.02 | 21 | 1018.9 |
| 20260507223101 | 57 | 17 | 1.7 | 11.3 | 0.00 | 0.04 | 0.02 | 22 | 1019.1 |
| 20260507221557 | 56 | 34 | 0.9 | 7.0 | 0.00 | 0.04 | 0.02 | 19 | 1019.4 |
| 20260507220055 | 56 | 25 | 3.5 | 7.8 | 0.00 | 0.04 | 0.02 | 17 | 1019.9 |
| 20260507214615 | 55 | 27 | 4.3 | 13.0 | 0.00 | 0.04 | 0.02 | 22 | 1020.0 |
| 20260507213103 | 56 | 182 | 2.6 | 7.8 | 0.00 | 0.04 | 0.02 | 21 | 1020.4 |
| 20260507211603 | 55 | 69 | 3.5 | 12.2 | 0.00 | 0.04 | 0.02 | 24 | 1020.7 |
| 20260507210052 | 55 | 179 | 2.6 | 9.6 | 0.00 | 0.06 | 0.02 | 24 | 1021.0 |
| 20260507204544 | 54 | 72 | 2.6 | 10.4 | 0.00 | 0.06 | 0.02 | 22 | 1021.2 |
| 20260507203051 | 54 | 27 | 7.0 | 13.9 | 0.00 | 0.06 | 0.02 | 23 | 1021.4 |
| 20260507201546 | 54 | 20 | 4.3 | 12.2 | 0.00 | 0.06 | 0.02 | 25 | 1021.6 |
| 20260507200042 | 54 | 10 | 5.2 | 10.4 | 0.00 | 0.10 | 0.02 | 22 | 1022.0 |
| 20260507194610 | 53 | 313 | 3.5 | 8.7 | 0.00 | 0.10 | 0.02 | 19 | 1022.4 |
| 20260507193039 | 53 | 24 | 1.7 | 20.9 | 0.00 | 0.10 | 0.02 | 20 | 1022.6 |
| 20260507191543 | 53 | 34 | 5.2 | 12.2 | 0.00 | 0.10 | 0.02 | 19 | 1022.7 |
| 20260507190037 | 53 | 30 | 0.9 | 13.0 | 0.00 | 0.14 | 0.02 | 21 | 1022.9 |
| 20260507184539 | 52 | 48 | 4.3 | 13.0 | 0.00 | 0.14 | 0.02 | 24 | 1023.1 |
| 20260507183037 | 51 | 33 | 4.3 | 13.0 | 0.00 | 0.14 | 0.02 | 25 | 1023.2 |
| 20260507181532 | 51 | 193 | 1.7 | 9.6 | 0.01 | 0.14 | 0.02 | 17 | 1023.6 |
| 20260507180032 | 51 | 282 | 4.3 | 10.4 | 0.02 | 0.22 | 0.02 | 29 | 1023.4 |
| 20260507174535 | 50 | 46 | 3.5 | 8.7 | 0.02 | 0.22 | 0.02 | 26 | 1023.5 |
| 20260507173033 | 48 | 41 | 1.7 | 6.1 | 0.02 | 0.22 | 0.02 | 27 | 1023.7 |
| 20260507171520 | 47 | 149 | 0.0 | 1.7 | 0.01 | 0.21 | 0.01 | 30 | 1023.9 |
| 20260507170019 | 45 | 352 | 0.9 | 3.5 | 0.00 | 0.22 | 0.00 | 41 | 1024.1 |
| 20260507164512 | 43 | 91 | 0.0 | 3.5 | 0.00 | 0.22 | 0.00 | 58 | 1024.3 |
| 20260507163008 | 40 | 99 | 0.0 | 3.5 | 0.00 | 0.22 | 0.00 | 56 | 1024.6 |
| 20260507161505 | 39 | 74 | 0.9 | 5.2 | 0.00 | 0.22 | 0.00 | 65 | 1024.7 |
| 20260507160001 | 37 | 117 | 0.0 | 0.0 | 0.00 | 0.22 | 0.00 | 73 | 1024.7 |
| 20260507154606 | 36 | 116 | 0.0 | 0.0 | 0.00 | 0.22 | 0.00 | 70 | 1024.9 |
| 20260507153053 | 34 | 116 | 0.0 | 0.0 | 0.00 | 0.22 | 0.00 | 73 | 1025.1 |
| 20260507151549 | 33 | 116 | 0.0 | 0.9 | 0.00 | 0.22 | 0.00 | 74 | 1025.6 |
| 20260507150046 | 31 | 116 | 0.0 | 0.9 | 0.00 | 0.22 | 0.00 | 80 | 1025.8 |
| 20260507144541 | 28 | 116 | 0.0 | 0.9 | 0.00 | 0.22 | 0.00 | 86 | 1025.9 |
| 20260507143038 | 25 | 116 | 0.0 | 0.0 | 0.00 | 0.22 | 0.00 | 92 | 1026.0 |
| 20260507141534 | 21 | 116 | 0.0 | 0.0 | 0.00 | 0.22 | 0.00 | 95 | 1025.9 |
| 20260507140038 | 18 | 116 | 0.0 | 0.0 | 0.00 | 0.22 | 0.00 | 94 | 1026.0 |
| 20260507134537 | 17 | 116 | 0.0 | 0.0 | 0.00 | 0.22 | 0.00 | 93 | 1026.0 |
| 20260507133034 | 16 | 116 | 0.0 | 0.0 | 0.00 | 0.22 | 0.00 | 93 | 1025.8 |
| 20260507131531 | 15 | 116 | 0.0 | 0.0 | 0.00 | 0.22 | 0.00 | 92 | 1025.8 |
| 20260507130038 | 15 | 116 | 0.0 | 0.0 | 0.00 | 0.22 | 0.00 | 92 | 1025.5 |
| 20260507124530 | 14 | 116 | 0.0 | 0.0 | 0.00 | 0.22 | 0.00 | 91 | 1025.4 |
| 20260507123025 | 15 | 116 | 0.0 | 0.0 | 0.00 | 0.22 | 0.00 | 91 | 1025.0 |
| 20260507121524 | 14 | 116 | 0.0 | 0.9 | 0.00 | 0.22 | 0.00 | 91 | 1024.7 |
| 20260507120024 | 15 | 116 | 0.0 | 0.9 | 0.00 | 0.22 | 0.00 | 91 | 1024.7 |
| 20260507114519 | 15 | 116 | 0.0 | 0.0 | 0.00 | 0.22 | 0.00 | 92 | 1024.4 |
| 20260507113017 | 15 | 116 | 0.0 | 0.0 | 0.00 | 0.22 | 0.00 | 92 | 1024.0 |
| 20260507111514 | 16 | 116 | 0.0 | 0.9 | 0.00 | 0.22 | 0.00 | 91 | 1023.9 |
| 20260507110014 | 16 | 116 | 0.0 | 0.0 | 0.00 | 0.22 | 0.00 | 92 | 1023.7 |
| 20260507104513 | 16 | 116 | 0.0 | 0.0 | 0.00 | 0.22 | 0.00 | 92 | 1023.7 |
| 20260507103020 | 16 | 117 | 0.0 | 0.0 | 0.00 | 0.22 | 0.00 | 92 | 1023.5 |
| 20260507101508 | 16 | 231 | 0.0 | 0.0 | 0.00 | 0.22 | 0.00 | 92 | 1023.3 |
| 20260507100006 | 16 | 158 | 0.0 | 0.0 | 0.00 | 0.22 | 0.00 | 92 | 1023.2 |
| 20260507094508 | 17 | 158 | 0.0 | 0.0 | 0.00 | 0.22 | 0.00 | 92 | 1023.2 |
| 20260507093002 | 17 | 158 | 0.0 | 0.0 | 0.00 | 0.22 | 0.00 | 92 | 1022.9 |
| 20260507091601 | 18 | 158 | 0.0 | 0.0 | 0.00 | 0.22 | 0.00 | 92 | 1022.9 |
| 20260507090058 | 18 | 158 | 0.0 | 0.0 | 0.00 | 0.22 | 0.00 | 92 | 1022.7 |
| 20260507084556 | 18 | 158 | 0.0 | 0.0 | 0.00 | 0.22 | 0.00 | 92 | 1022.5 |
| 20260507083053 | 19 | 158 | 0.0 | 0.0 | 0.00 | 0.22 | 0.00 | 93 | 1022.2 |
| 20260507081551 | 19 | 158 | 0.0 | 0.0 | 0.00 | 0.22 | 0.00 | 93 | 1022.0 |
| 20260507080100 | 19 | 158 | 0.0 | 0.0 | 0.00 | 0.22 | 0.00 | 93 | 1021.8 |
| 20260507074649 | 20 | 158 | 0.0 | 0.0 | 0.00 | 0.22 | 0.00 | 93 | 1021.8 |
| 20260507073046 | 20 | 158 | 0.0 | 0.0 | 0.00 | 0.22 | 0.00 | 93 | 1021.6 |
| 20260507071602 | 20 | 158 | 0.0 | 0.0 | 0.00 | 0.22 | 0.00 | 94 | 1021.6 |
| 20260507070044 | 20 | 158 | 0.0 | 0.0 | 0.00 | 0.22 | 0.00 | 94 | 1021.3 |
| 20260507064542 | 20 | 158 | 0.0 | 0.0 | 0.00 | 0.22 | 0.00 | 92 | 1021.3 |
| 20260507063044 | 22 | 158 | 0.0 | 0.0 | 0.00 | 0.22 | 0.00 | 93 | 1021.1 |
| 20260507061535 | 22 | 158 | 0.0 | 0.0 | 0.00 | 0.22 | 0.00 | 93 | 1020.8 |